sat.trackr.live / text

‹ back to catalog

TIANMU-1 12

NORAD 58646 · 2023-205B

PAYLOAD ACTIVE UNKNOWN

§ Identity

Operator
Country
PRC
Launch date
2023-12-25
Launch site
JSC
Launch vehicle
Mass (kg)
RCS (m²)

Purposes: earth_obs

External: N2YO · Heavens-Above · Gunter

§ Orbital elements

Epoch: 2026-09-19T23:12:24.857568Z

Period
94.27 min
Inclination
97.3425°
Eccentricity
0.0008035
Mean motion
15.27484268 rev/d
Perigee alt
477.8 km
Apogee alt
488.8 km
Semi-major
6,861.5 km
B*
1.3312e-4
RAAN
282.7867°
Arg perigee
27.6170°
Mean anomaly
332.5494°
Rev number
15,197

§ Raw data

TIANMU-1 121 58646U 23205B   26262.96695437  .00003509  00000+0  13312-3 0  99972 58646  97.3425 282.7867 0008035  27.6170 332.5494 15.27484268151970

JSON: /api/v1/satellites/58646 · /tle

For live sub-satellite position, see the globe view (requires WebGL).

§ Visibility from observer

Set your observer location to see the next 7 days of passes ≥ 10°. The values pass through the URL so the page stays shareable.

No JS? Fill the form by hand. The geolocation button needs JavaScript.